Location: Bannatyne
(13.0833°N, 59.5333°W)
Time: 17:18:12
(UTC+00:00)

Tiros 1 despin weight - Visible Passes

Search period start: 29 January 2020 00:00
Search period end: 08 February 2020 00:00
Orbit: 594 x 642 km, 48.2° (Epoch: 28 January)

Date Brightness Start Highest point End Pass type
(mag) Time Alt. Az. Time Alt. Az. Time Alt. Az.
29 Jan ? 22:31:08 10° WNW 22:34:43 22° SW 22:38:19 10° S visible
31 Jan ? 09:21:40 10° SSE 09:23:56 14° SE 09:26:13 10° E visible
01 Feb ? 09:36:18 10° SSW 09:40:21 37° SE 09:44:25 10° ENE visible
02 Feb ? 09:52:25 10° SW 09:56:49 78° NW 10:01:13 10° NE visible
03 Feb ? 08:28:42 10° S 08:32:01 21° SE 08:35:20 10° ENE visible
04 Feb ? 08:46:36 31° SSW 08:48:27 57° SE 08:52:45 10° NE visible
05 Feb ? 09:04:28 48° WNW 09:04:55 50° NW 09:09:12 10° NNE visible
06 Feb ? 09:21:50 20° NW 09:21:50 20° NW 09:24:47 10° N visible
